FENGYUN 3D

Last updated on Tue Jan 14 2025 00:02:18 GMT+0000 (Coordinated Universal Time)

1 43010U 17072A 25013.57648771 .00000176 00000+0 10499-3 0 9990 2 43010 98.9418 335.7948 0002520 91.1575 268.9889 14.19542868371262
UTC large
Height (km)
Speed (km/s)
/
Latitude / Longitude
Inclination (degrees)
Orbital Period (minutes)
Azimuth
Elevation
Range (km)
Doppler Factor

Next 0 passes for location: London (51.5072 / 0.1276)

Sorry there are no passes over London.